Schenectady, NY
on Saturday, December 9, 2017

Saturday
       
Previous Day Next Day
Daily Summary
 ActualAverageRecord
Temperature
Mean Temperature °F °C °F °C  
Max Temperature 32°F 0°C 36°F 2°C 47°F 8°C (1991)
Min Temperature 26°F -3°C 26°F -3°C 3°F -16°C (2000)
Degree Days
Heating Degree Days 36    
Moisture
Dew Point 23°F -5°C   
Average Humidity 79    
Maximum Humidity 100    
Minimum Humidity 51    
Precipitation
Precipitation 0.00 in / 0.00 cm in / cm in / cm ()
Wind
Wind Speed 1 mph / 2 km/h   
Max Wind Speed 4 mph / 6 km/h   
Max Gust Speed mph / km/h   
Visibility 8 miles / 12 kilometers   
Events Snow   
Averages and records for this station are not official NWS values.
Key: T is trace of precipitation, MM is missing value
Source: NWS Daily Summary
Seasonal Weather Averages
Time(EST)TemperatureDew PointHumidity Pressure Visibility Wind DirectionWind SpeedGust SpeedPrecipitationEvents Conditions
7:52 AM - - N/A% 29.96 in / 1014.4 hPa 15.0 miles / 24.1 kilometers Calm Calm - N/A   Clear
8:51 AM 28.4°F -2.0°C 23.0°F -5.0°C 80% 29.96 in / 1014.4 hPa 15.0 miles / 24.1 kilometers Calm Calm - N/A   Clear
9:46 AM 30.2°F -1.0°C 19.4°F -7.0°C 64% 29.94 in / 1013.8 hPa 15.0 miles / 24.1 kilometers Calm Calm - N/A   Clear
10:59 AM 32.0°F 0.0°C 15.8°F -9.0°C 51% 29.92 in / 1013.1 hPa 15.0 miles / 24.1 kilometers Calm Calm - N/A   Overcast
11:58 AM 32.0°F 0.0°C 17.6°F -8.0°C 55% 29.90 in / 1012.4 hPa 15.0 miles / 24.1 kilometers Calm Calm - N/A   Overcast
1:51 PM 32.0°F 0.0°C 17.6°F -8.0°C 55% 29.83 in / 1010.0 hPa 10.0 miles / 16.1 kilometers ESE 3.5 mph / 5.6 km/h - N/A   Overcast
2:48 PM 30.2°F -1.0°C 23.0°F -5.0°C 75% 29.82 in / 1009.7 hPa 2.0 miles / 3.2 kilometers Calm Calm - N/A Snow Light Snow
3:54 PM 28.4°F -2.0°C 26.6°F -3.0°C 93% 29.81 in / 1009.4 hPa 1.0 miles / 1.6 kilometers Calm Calm - N/A Snow Light Snow
4:53 PM 28.4°F -2.0°C 26.6°F -3.0°C 93% 29.81 in / 1009.4 hPa 1.0 miles / 1.6 kilometers Calm Calm - N/A Snow Light Snow
5:55 PM 26.6°F -3.0°C 26.6°F -3.0°C 100% 29.77 in / 1008.0 hPa 2.0 miles / 3.2 kilometers NW 3.5 mph / 5.6 km/h - N/A Snow Light Snow
6:55 PM 26.6°F -3.0°C 26.6°F -3.0°C 100% 29.76 in / 1007.7 hPa 4.0 miles / 6.4 kilometers NNW 3.5 mph / 5.6 km/h - N/A Snow Light Snow
7:52 PM 28.4°F -2.0°C 26.6°F -3.0°C 93% 29.76 in / 1007.7 hPa 2.5 miles / 4.0 kilometers NNW 3.5 mph / 5.6 km/h - N/A Snow Light Snow
8:55 PM 28.4°F -2.0°C 26.6°F -3.0°C 93% 29.75 in / 1007.3 hPa 2.0 miles / 3.2 kilometers Calm Calm - N/A Snow Light Snow